{"data":{"norad_id":57746,"intl_designator":"2023-131Q","name":"STARLINK-30350","alt_names":[],"object_type":"PAYLOAD","status":"ACTIVE","operator":null,"country":"US","launch_date":"2023-09-01","launch_site_code":"AFETR","launch_vehicle":null,"mission":null,"orbit_class":"UNKNOWN","rcs_meters":null,"size_class":null,"mass_kg":null,"dimensions":null,"purposes":["comms"],"wikipedia_slug":null,"has_3d_model":false,"image_url":null,"decayed_at":null,"tle_current":{"epoch":"2026-05-24T21:55:50.187648Z","epoch_age_seconds":85528,"freshness":"FRESH","line1":"1 57746U 23131Q   26144.91377532  .00000671  00000+0  33890-4 0  9993","line2":"2 57746  43.0024  98.5906 0000734 280.6050  79.4719 15.27575147151611","mean_motion":15.27575147,"eccentricity":7.34e-5,"inclination_deg":43.0024,"raan_deg":98.5906,"arg_perigee_deg":280.605,"mean_anomaly_deg":79.4719,"bstar":3.389e-5,"rev_number":15161,"period_min":94.267048192556,"perigee_km":482.56001557991,"apogee_km":483.56723983206,"semimajor_km":6861.200627706,"source":"CELESTRAK","updated_at":"2026-05-25T13:38:18.401686Z"}}}